TimeEDT,TemperatureF,Dew PointF,Humidity,Sea Level PressureIn,VisibilityMPH,Wind Direction,Wind SpeedMPH,Gust SpeedMPH,PrecipitationIn,Events,Conditions,WindDirDegrees,DateUTC
12:53 AM,64.0,62.1,93,30.04,10.0,WSW,5.8,-,N/A,,Clear,240,2013-07-27 04:53:00
1:53 AM,66.0,64.0,93,30.04,10.0,WSW,8.1,-,N/A,,Clear,240,2013-07-27 05:53:00
2:53 AM,66.9,64.9,93,30.04,10.0,WSW,8.1,-,N/A,,Clear,250,2013-07-27 06:53:00
3:11 AM,66.2,64.4,94,30.04,10.0,WSW,6.9,-,N/A,,Partly Cloudy,240,2013-07-27 07:11:00
3:35 AM,66.2,64.4,94,30.04,10.0,WSW,4.6,-,N/A,,Mostly Cloudy,240,2013-07-27 07:35:00
3:53 AM,66.9,64.9,93,30.04,10.0,WSW,5.8,-,N/A,,Overcast,240,2013-07-27 07:53:00
4:30 AM,68.0,64.4,88,30.05,10.0,WSW,6.9,-,N/A,,Mostly Cloudy,240,2013-07-27 08:30:00
4:46 AM,68.0,64.4,88,30.05,10.0,WSW,5.8,-,N/A,,Partly Cloudy,240,2013-07-27 08:46:00
4:53 AM,66.9,64.9,93,30.05,10.0,WSW,4.6,-,N/A,,Partly Cloudy,240,2013-07-27 08:53:00
5:53 AM,66.9,64.9,93,30.06,10.0,Variable,4.6,-,N/A,,Partly Cloudy,0,2013-07-27 09:53:00
6:53 AM,69.1,66.9,93,30.07,10.0,WSW,6.9,-,N/A,,Scattered Clouds,250,2013-07-27 10:53:00
7:53 AM,72.0,68.0,87,30.07,10.0,WSW,8.1,-,N/A,,Scattered Clouds,250,2013-07-27 11:53:00
8:53 AM,73.9,66.9,79,30.08,10.0,WSW,9.2,-,N/A,,Partly Cloudy,240,2013-07-27 12:53:00
9:37 AM,73.4,68.0,83,30.08,10.0,SW,10.4,-,N/A,,Mostly Cloudy,220,2013-07-27 13:37:00
9:53 AM,75.0,68.0,79,30.08,10.0,SW,4.6,-,N/A,,Mostly Cloudy,230,2013-07-27 13:53:00
10:06 AM,75.2,68.0,78,30.08,10.0,WSW,6.9,-,N/A,,Mostly Cloudy,240,2013-07-27 14:06:00
10:53 AM,75.9,69.1,79,30.09,10.0,SW,11.5,-,0.01,,Overcast,220,2013-07-27 14:53:00
11:11 AM,75.2,69.8,83,30.09,10.0,SW,8.1,-,N/A,,Mostly Cloudy,230,2013-07-27 15:11:00
11:30 AM,77.0,69.8,78,30.08,10.0,Variable,6.9,-,N/A,,Scattered Clouds,0,2013-07-27 15:30:00
11:53 AM,78.1,69.1,74,30.08,10.0,SSW,10.4,16.1,N/A,,Partly Cloudy,210,2013-07-27 15:53:00
12:53 PM,77.0,69.1,76,30.08,10.0,SSW,12.7,-,N/A,,Clear,200,2013-07-27 16:53:00
1:53 PM,77.0,68.0,74,30.07,10.0,SW,10.4,-,N/A,,Clear,230,2013-07-27 17:53:00
2:53 PM,77.0,68.0,74,30.07,10.0,SSW,13.8,-,N/A,,Clear,210,2013-07-27 18:53:00
3:53 PM,75.9,69.1,79,30.06,10.0,SW,11.5,18.4,N/A,,Clear,220,2013-07-27 19:53:00
4:53 PM,73.0,66.9,81,30.06,10.0,SSW,9.2,-,N/A,,Clear,210,2013-07-27 20:53:00
5:53 PM,72.0,66.9,84,30.05,10.0,South,9.2,-,N/A,,Clear,190,2013-07-27 21:53:00
6:53 PM,71.1,66.0,84,30.05,10.0,South,8.1,-,N/A,,Clear,180,2013-07-27 22:53:00
7:53 PM,70.0,66.9,90,30.05,10.0,South,8.1,-,N/A,,Clear,170,2013-07-27 23:53:00
8:53 PM,71.1,68.0,90,30.05,10.0,South,4.6,-,N/A,,Overcast,170,2013-07-28 00:53:00
9:53 PM,71.1,66.9,87,30.04,10.0,SSE,6.9,-,N/A,,Overcast,150,2013-07-28 01:53:00
10:36 PM,71.6,66.2,83,30.02,10.0,ESE,3.5,-,N/A,,Mostly Cloudy,110,2013-07-28 02:36:00
10:53 PM,71.1,66.9,87,30.03,10.0,Calm,Calm,-,N/A,,Mostly Cloudy,0,2013-07-28 02:53:00
11:49 PM,71.6,68.0,88,30.02,10.0,Calm,Calm,-,N/A,,Overcast,0,2013-07-28 03:49:00
11:53 PM,71.1,68.0,90,30.01,10.0,Calm,Calm,-,N/A,,Overcast,0,2013-07-28 03:53:00